TimeCST,TemperatureF,Dew PointF,Humidity,Sea Level PressureIn,VisibilityMPH,Wind Direction,Wind SpeedMPH,Gust SpeedMPH,PrecipitationIn,Events,Conditions,WindDirDegrees,DateUTC
12:32 AM,60.8,51.8,72,30.17,10.0,ENE,15.0,-,N/A,,Mostly Cloudy,60,2013-02-09 06:32:00
12:53 AM,60.1,50.0,69,30.15,10.0,NE,16.1,-,N/A,,Overcast,50,2013-02-09 06:53:00
1:53 AM,59.0,48.9,69,30.14,10.0,ENE,17.3,-,N/A,,Overcast,60,2013-02-09 07:53:00
2:19 AM,57.2,48.2,72,30.17,10.0,ENE,13.8,-,N/A,,Mostly Cloudy,60,2013-02-09 08:19:00
2:36 AM,57.2,48.2,72,30.17,10.0,ENE,12.7,-,N/A,,Mostly Cloudy,70,2013-02-09 08:36:00
2:53 AM,57.9,48.9,72,30.15,10.0,ENE,13.8,-,N/A,,Mostly Cloudy,70,2013-02-09 08:53:00
3:30 AM,57.2,48.2,72,30.17,10.0,ENE,16.1,-,N/A,,Scattered Clouds,70,2013-02-09 09:30:00
3:53 AM,57.9,48.0,70,30.16,10.0,ENE,11.5,-,N/A,,Scattered Clouds,70,2013-02-09 09:53:00
4:00 AM,57.2,48.2,72,30.18,10.0,ENE,15.0,-,N/A,,Mostly Cloudy,70,2013-02-09 10:00:00
4:53 AM,57.9,48.0,70,30.17,10.0,ENE,15.0,-,N/A,,Overcast,60,2013-02-09 10:53:00
5:53 AM,57.0,48.0,72,30.17,10.0,ENE,15.0,-,N/A,,Overcast,70,2013-02-09 11:53:00
6:53 AM,55.9,46.9,72,30.17,10.0,East,15.0,-,N/A,,Overcast,80,2013-02-09 12:53:00
7:53 AM,55.9,48.0,75,30.19,10.0,East,15.0,-,N/A,,Overcast,80,2013-02-09 13:53:00
8:26 AM,57.2,48.2,72,30.22,10.0,East,11.5,-,N/A,,Overcast,80,2013-02-09 14:26:00
8:53 AM,57.9,48.9,72,30.21,10.0,East,11.5,-,N/A,,Overcast,80,2013-02-09 14:53:00
9:53 AM,60.1,51.1,72,30.21,10.0,East,10.4,-,N/A,,Overcast,80,2013-02-09 15:53:00
10:53 AM,62.1,52.0,70,30.21,10.0,East,12.7,-,N/A,,Overcast,90,2013-02-09 16:53:00
11:33 AM,64.4,53.6,68,30.21,10.0,ENE,13.8,-,N/A,,Overcast,70,2013-02-09 17:33:00
11:53 AM,63.0,54.0,72,30.19,10.0,ENE,13.8,-,N/A,,Overcast,70,2013-02-09 17:53:00
12:42 PM,64.4,53.6,68,30.18,10.0,East,13.8,-,N/A,,Overcast,80,2013-02-09 18:42:00
12:53 PM,64.0,54.0,70,30.15,10.0,East,16.1,-,N/A,,Overcast,90,2013-02-09 18:53:00
1:04 PM,64.4,55.4,73,30.17,10.0,East,12.7,-,N/A,,Overcast,90,2013-02-09 19:04:00
1:53 PM,66.0,55.0,68,30.13,10.0,East,15.0,-,N/A,,Mostly Cloudy,90,2013-02-09 19:53:00
2:33 PM,66.2,55.4,68,30.13,10.0,East,15.0,-,N/A,,Scattered Clouds,90,2013-02-09 20:33:00
2:53 PM,66.9,55.9,68,30.10,10.0,East,15.0,-,N/A,,Partly Cloudy,90,2013-02-09 20:53:00
3:53 PM,66.0,55.9,70,30.09,10.0,East,12.7,-,N/A,,Partly Cloudy,100,2013-02-09 21:53:00
4:33 PM,66.2,55.4,68,30.11,10.0,East,15.0,-,N/A,,Mostly Cloudy,100,2013-02-09 22:33:00
4:53 PM,66.0,55.9,70,30.09,10.0,East,12.7,-,N/A,,Mostly Cloudy,100,2013-02-09 22:53:00
5:53 PM,66.0,57.0,73,30.08,10.0,East,16.1,-,N/A,,Mostly Cloudy,100,2013-02-09 23:53:00
6:29 PM,66.2,57.2,73,30.11,10.0,East,15.0,-,N/A,,Overcast,100,2013-02-10 00:29:00
6:53 PM,64.9,57.0,75,30.09,10.0,East,15.0,-,N/A,,Overcast,100,2013-02-10 00:53:00
7:53 PM,64.9,57.9,78,30.09,10.0,East,11.5,-,N/A,,Overcast,100,2013-02-10 01:53:00
8:17 PM,64.4,57.2,77,30.11,10.0,East,10.4,-,N/A,,Mostly Cloudy,100,2013-02-10 02:17:00
8:28 PM,64.4,57.2,77,30.11,10.0,East,11.5,-,N/A,,Mostly Cloudy,100,2013-02-10 02:28:00
8:53 PM,64.9,57.9,78,30.08,10.0,East,11.5,-,N/A,,Mostly Cloudy,100,2013-02-10 02:53:00
9:48 PM,66.2,57.2,73,30.09,10.0,ESE,12.7,-,N/A,,Mostly Cloudy,110,2013-02-10 03:48:00
9:53 PM,66.0,59.0,78,30.07,10.0,ESE,13.8,-,N/A,,Mostly Cloudy,110,2013-02-10 03:53:00
10:48 PM,66.2,59.0,78,30.06,10.0,ESE,16.1,-,N/A,,Mostly Cloudy,110,2013-02-10 04:48:00
10:53 PM,66.0,59.0,78,30.04,10.0,ESE,13.8,-,N/A,,Mostly Cloudy,110,2013-02-10 04:53:00
11:16 PM,66.2,59.0,78,30.06,10.0,ESE,12.7,-,N/A,,Overcast,110,2013-02-10 05:16:00
11:24 PM,66.2,59.0,78,30.05,10.0,ESE,17.3,-,N/A,,Overcast,110,2013-02-10 05:24:00
11:51 PM,66.2,60.8,83,30.04,10.0,ESE,15.0,-,N/A,,Overcast,110,2013-02-10 05:51:00
11:53 PM,66.9,60.1,79,30.03,10.0,ESE,13.8,-,N/A,,Mostly Cloudy,110,2013-02-10 05:53:00